When you browse on this site, cookies collect data to enhance your experience and personalize the content and advertising you see.
Visit our Privacy Policy to learn more. By continuing to use the site, you agree to this use of cookies and data.
  • In Hungary
  • List of Countries
  • For 7 days
  • Water Temperature
  • Satellite Maps
  • Weather Map
  • News
  • Weather Widgets
  • user-avatar
    Login

    Hourly Weather Lenexa

    Today, 23 February, Saturday

    Time Temperature Precipitation Wind Pressure Humidity
    00:00 +1°C° 0 mm 2 mps 733 mmHg 98%
    01:00 +1°C° 1.2 mm 2 mps 733 mmHg 98%
    02:00 +1°C° 1.2 mm 2 mps 732 mmHg 98%
    03:00 +1°C° 1.2 mm 2 mps 731 mmHg 99%
    04:00 +1°C° 0.1 mm 2 mps 731 mmHg 99%
    05:00 +2°C° 0.1 mm 2 mps 730 mmHg 99%
    06:00 +1°C° 0 mm 2 mps 730 mmHg 98%
    07:00 0°C° 0.2 mm 3 mps 729 mmHg 98%
    08:00 +1°C° 0.2 mm 3 mps 728 mmHg 99%
    09:00 0°C° 0.2 mm 4 mps 727 mmHg 99%
    10:00 +1°C° 1.3 mm 4 mps 726 mmHg 99%
    11:00 +3°C° 1.3 mm 4 mps 725 mmHg 99%
    12:00 +4°C° 1.3 mm 4 mps 723 mmHg 99%
    13:00 +6°C° 0.4 mm 4 mps 722 mmHg 94%
    14:00 +7°C° 0.4 mm 5 mps 721 mmHg 90%
    15:00 +9°C° 0.4 mm 5 mps 720 mmHg 86%
    16:00 +8°C° 0.2 mm 6 mps 720 mmHg 86%
    17:00 +7°C° 0.2 mm 6 mps 720 mmHg 86%
    18:00 +4°C° 0.2 mm 6 mps 720 mmHg 86%
    19:00 +2°C° 0.1 mm 7 mps 722 mmHg 85%
    20:00 0°C° 0.1 mm 8 mps 723 mmHg 83%
    21:00 -3°C° 0.1 mm 9 mps 724 mmHg 82%
    22:00 -4°C° 0 mm 9 mps 726 mmHg 80%
    23:00 -4°C° 0 mm 10 mps 728 mmHg 79%

    Tomorrow, 24 February, Sunday

    Time Temperature Precipitation Wind Pressure Humidity
    00:00 -5°C° 0 mm 10 mps 730 mmHg 77%
    01:00 -5°C° 0 mm 9 mps 731 mmHg 74%
    02:00 -5°C° 0 mm 9 mps 732 mmHg 70%
    03:00 -6°C° 0 mm 8 mps 733 mmHg 67%
    04:00 -6°C° 0 mm 8 mps 734 mmHg 68%
    05:00 -6°C° 0 mm 7 mps 735 mmHg 70%
    06:00 -6°C° 0 mm 7 mps 736 mmHg 72%
    07:00 -6°C° 0 mm 7 mps 737 mmHg 70%
    08:00 -4°C° 0 mm 7 mps 738 mmHg 68%
    09:00 -4°C° 0 mm 7 mps 739 mmHg 66%
    10:00 -4°C° 0 mm 7 mps 740 mmHg 63%
    11:00 -3°C° 0 mm 7 mps 741 mmHg 60%
    12:00 -3°C° 0 mm 7 mps 742 mmHg 56%
    13:00 -3°C° 0 mm 7 mps 742 mmHg 56%
    14:00 -3°C° 0 mm 6 mps 742 mmHg 56%
    15:00 -3°C° 0 mm 6 mps 742 mmHg 55%
    16:00 -4°C° 0 mm 5 mps 743 mmHg 59%
    17:00 -4°C° 0 mm 4 mps 743 mmHg 62%
    18:00 -5°C° 0 mm 3 mps 743 mmHg 66%
    19:00 -6°C° 0 mm 3 mps 744 mmHg 67%
    20:00 -6°C° 0 mm 3 mps 744 mmHg 69%
    21:00 -7°C° 0 mm 3 mps 744 mmHg 70%
    22:00 -7°C° 0 mm 3 mps 745 mmHg 69%
    23:00 -7°C° 0 mm 3 mps 745 mmHg 68%

    Day after tomorrow, 25 February, Monday

    Time Temperature Precipitation Wind Pressure Humidity
    00:00 -8°C° 0 mm 3 mps 745 mmHg 67%
    01:00 -7°C° 0 mm 2 mps 745 mmHg 65%
    02:00 -7°C° 0 mm 2 mps 745 mmHg 64%
    03:00 -7°C° 0 mm 2 mps 745 mmHg 62%
    04:00 -7°C° 0 mm 2 mps 744 mmHg 62%
    05:00 -7°C° 0 mm 2 mps 744 mmHg 61%
    06:00 -7°C° 0 mm 2 mps 744 mmHg 60%
    07:00 -8°C° 0 mm 3 mps 744 mmHg 58%
    08:00 -7°C° 0 mm 3 mps 744 mmHg 56%
    09:00 -7°C° 0 mm 3 mps 744 mmHg 54%
    10:00 -5°C° 0 mm 3 mps 744 mmHg 50%
    11:00 -2°C° 0 mm 3 mps 744 mmHg 46%
    12:00 0°C° 0 mm 3 mps 743 mmHg 42%
    13:00 +2°C° 0 mm 3 mps 742 mmHg 42%
    14:00 +4°C° 0 mm 2 mps 742 mmHg 42%
    15:00 +6°C° 0 mm 2 mps 741 mmHg 42%
    16:00 +3°C° 0 mm 3 mps 741 mmHg 47%
    17:00 +2°C° 0 mm 3 mps 741 mmHg 53%
    18:00 -1°C° 0 mm 4 mps 740 mmHg 58%
    19:00 -1°C° 0 mm 4 mps 741 mmHg 57%
    20:00 -2°C° 0 mm 5 mps 741 mmHg 57%
    21:00 -4°C° 0 mm 5 mps 741 mmHg 56%
    22:00 -4°C° 0 mm 5 mps 741 mmHg 56%
    23:00 -5°C° 0 mm 5 mps 741 mmHg 56%

    26 February, Tuesday

    Time Temperature Precipitation Wind Pressure Humidity
    00:00 -4°C° 0 mm 4 mps 741 mmHg 56%
    01:00 -4°C° 0 mm 4 mps 741 mmHg 57%
    02:00 -4°C° 0 mm 4 mps 741 mmHg 58%
    03:00 -5°C° 0 mm 4 mps 740 mmHg 58%
    04:00 -5°C° 0 mm 4 mps 740 mmHg 61%
    05:00 -5°C° 0 mm 4 mps 740 mmHg 64%
    06:00 -5°C° 0 mm 4 mps 740 mmHg 67%
    07:00 -3°C° 0 mm 4 mps 740 mmHg 69%
    08:00 -2°C° 0 mm 4 mps 740 mmHg 70%
    09:00 -1°C° 0 mm 4 mps 740 mmHg 72%
    10:00 +1°C° 0 mm 4 mps 739 mmHg 70%
    11:00 +5°C° 0 mm 4 mps 739 mmHg 69%
    12:00 +8°C° 0 mm 4 mps 738 mmHg 68%
    13:00 +9°C° 0 mm 3 mps 738 mmHg 73%
    14:00 +9°C° 0 mm 2 mps 737 mmHg 78%
    15:00 +9°C° 0 mm 2 mps 736 mmHg 83%
    16:00 +9°C° 0 mm 2 mps 736 mmHg 86%
    17:00 +8°C° 0 mm 2 mps 736 mmHg 89%
    18:00 +8°C° 0 mm 1 mps 735 mmHg 92%
    19:00 +7°C° 0.1 mm 2 mps 735 mmHg 93%
    20:00 +7°C° 0.1 mm 2 mps 735 mmHg 93%
    21:00 +7°C° 0.1 mm 2 mps 735 mmHg 94%
    22:00 +7°C° 0.1 mm 2 mps 735 mmHg 95%
    23:00 +7°C° 0.1 mm 2 mps 735 mmHg 95%

    27 February, Wednesday

    Time Temperature Precipitation Wind Pressure Humidity
    00:00 +7°C° 0.1 mm 2 mps 735 mmHg 96%
    01:00 +7°C° 0.1 mm 2 mps 735 mmHg 96%
    02:00 +8°C° 0.1 mm 1 mps 735 mmHg 97%
    03:00 +8°C° 0.1 mm 1 mps 736 mmHg 97%
    04:00 +4°C° 0.5 mm 3 mps 736 mmHg 95%
    05:00 +3°C° 0.5 mm 4 mps 736 mmHg 92%
    06:00 0°C° 0.5 mm 5 mps 737 mmHg 90%
    07:00 -2°C° 0.1 mm 6 mps 738 mmHg 87%
    08:00 -2°C° 0.1 mm 6 mps 739 mmHg 85%
    09:00 -3°C° 0.1 mm 6 mps 740 mmHg 83%
    10:00 -3°C° 0 mm 6 mps 740 mmHg 79%
    11:00 -4°C° 0 mm 6 mps 741 mmHg 75%
    12:00 -4°C° 0 mm 6 mps 742 mmHg 71%
    13:00 -3°C° 0 mm 6 mps 741 mmHg 69%
    14:00 -3°C° 0 mm 6 mps 741 mmHg 67%
    15:00 -2°C° 0 mm 6 mps 741 mmHg 65%
    16:00 -4°C° 0 mm 5 mps 741 mmHg 66%
    17:00 -5°C° 0 mm 5 mps 741 mmHg 66%
    18:00 -6°C° 0 mm 5 mps 741 mmHg 66%
    19:00 -6°C° 0 mm 5 mps 742 mmHg 66%
    20:00 -7°C° 0 mm 4 mps 742 mmHg 67%
    21:00 -8°C° 0 mm 4 mps 742 mmHg 67%
    22:00 -8°C° 0 mm 4 mps 742 mmHg 66%
    23:00 -7°C° 0 mm 3 mps 741 mmHg 65%

    28 February, Thursday

    Time Temperature Precipitation Wind Pressure Humidity
    00:00 -7°C° 0 mm 3 mps 741 mmHg 64%
    01:00 -7°C° 0 mm 3 mps 741 mmHg 62%
    02:00 -7°C° 0 mm 3 mps 740 mmHg 61%
    03:00 -8°C° 0 mm 3 mps 740 mmHg 59%
    04:00 -7°C° 0 mm 3 mps 740 mmHg 57%
    05:00 -7°C° 0 mm 3 mps 740 mmHg 55%
    06:00 -7°C° 0 mm 3 mps 740 mmHg 54%
    07:00 -7°C° 0 mm 3 mps 740 mmHg 52%
    08:00 -7°C° 0 mm 3 mps 740 mmHg 51%
    09:00 -6°C° 0 mm 2 mps 740 mmHg 49%
    10:00 -5°C° 0 mm 2 mps 739 mmHg 46%
    11:00 -4°C° 0 mm 2 mps 739 mmHg 42%
    12:00 -3°C° 0 mm 2 mps 739 mmHg 39%
    13:00 -2°C° 0 mm 2 mps 738 mmHg 39%
    14:00 -1°C° 0 mm 2 mps 738 mmHg 39%
    15:00 +1°C° 0 mm 2 mps 737 mmHg 39%
    16:00 -1°C° 0 mm 2 mps 737 mmHg 43%
    17:00 +1°C° 0 mm 1 mps 737 mmHg 46%
    18:00 0°C° 0 mm 1 mps 736 mmHg 50%
    19:00 -3°C° 0 mm 2 mps 736 mmHg 52%
    20:00 -3°C° 0 mm 2 mps 736 mmHg 53%
    21:00 -4°C° 0 mm 2 mps 736 mmHg 55%
    22:00 -4°C° 0 mm 2 mps 736 mmHg 56%
    23:00 -4°C° 0 mm 2 mps 735 mmHg 57%
    Show more